Location: Schommer Observatory
(40.5200°N, 74.4500°W)
Time: 11:05:30
(UTC-05:00)

OTV 5 (USA 277) - Pass Details

Date: 19 November 2017
Orbit: 404 x 417 km, 43.0° (Epoch: 07 September)

Event Time Altitude Azimuth Distance (km) Brightness Sun altitude
Exits shadow 04:15:55 16° 94° (E) 1,128 ? -28.9°
Drops below altitude 10° 04:16:45 10° 97° (E) 1,454 ? -28.8°
Sets 04:18:50 0° 99° (E) 2,311 ? -28.4°
